Theta_e
339 339 340 342 342 341 340 340 341 342 342 339 337 339 339 338 338 340 340 344 346 345 345 345 344 344 344 344 343 342 340 336 331 332 338 342 343 343 342 342 342 341 342 341 341 340 341 341 341 342 343 342 342 342 342 341 340 342 344 345 345 343 343 343 343 343 344 344 344 344 343 342 341 340 340 339 338 337 337 338 340 342 342 340 340
338 338 340 343 343 343 343 342 342 343 344 341 338 339 340 341 341 342 343 345 346 345 345 345 344 343 342 342 341 341 340 338 335 334 339 342 343 342 343 342 342 342 342 341 340 341 342 341 340 341 341 341 341 342 342 341 341 341 343 344 344 344 343 343 344 344 344 344 344 344 343 344 343 342 341 341 340 339 338 338 340 340 339 339 339
338 338 341 343 343 343 343 344 344 344 344 344 343 342 342 343 342 344 345 345 345 344 345 345 344 342 342 342 342 342 341 339 336 337 340 342 343 342 343 343 342 342 342 341 341 340 341 341 340 340 341 341 341 342 342 341 341 341 341 342 342 343 343 344 344 343 344 343 343 343 343 343 343 342 342 342 342 341 340 340 342 342 341 341 341
340 341 342 343 343 343 343 344 345 345 345 344 344 343 342 342 342 344 344 344 344 344 345 345 344 343 344 343 343 343 342 340 337 338 340 342 342 342 343 343 342 342 342 341 341 341 340 340 340 339 340 341 342 342 341 341 342 342 342 341 342 343 343 344 343 343 342 342 343 343 343 343 343 342 341 341 341 341 340 340 341 342 342 342 342
342 342 343 344 343 343 342 343 343 344 344 344 344 342 342 341 342 342 342 343 344 344 345 344 343 344 344 344 344 344 343 342 340 339 341 343 343 342 343 343 342 343 343 342 342 343 342 340 340 340 339 340 341 342 341 341 342 342 342 342 342 342 343 343 343 343 342 341 342 342 342 343 342 341 339 338 338 338 338 339 339 340 340 339 339
343 343 343 343 343 342 341 342 343 343 343 344 343 341 341 341 341 342 342 342 342 343 344 343 343 344 344 344 344 344 342 343 341 340 342 343 342 343 343 343 343 343 344 343 343 344 343 342 341 340 338 337 340 342 341 341 342 342 342 343 342 342 342 342 342 341 341 340 341 342 342 342 341 339 336 335 334 334 335 335 335 335 334 333 333
342 342 342 342 342 341 340 342 344 343 343 343 341 340 342 342 342 342 342 342 341 343 344 344 343 343 344 344 344 344 343 343 342 342 343 341 341 343 344 343 343 343 344 344 344 343 343 343 342 340 338 336 339 342 342 342 342 342 342 342 342 342 342 341 340 340 340 341 342 341 341 340 340 338 336 335 333 334 334 333 331 330 329 329 330
342 342 341 341 342 341 341 343 344 343 342 342 341 340 342 343 343 343 343 343 342 342 343 344 343 343 344 344 344 343 343 343 342 342 342 341 340 342 344 344 343 344 344 343 343 343 342 343 343 343 341 338 338 341 342 342 342 342 341 341 340 340 340 340 339 339 339 340 340 340 340 340 340 339 337 335 334 334 334 334 333 332 332 333 333
341 341 341 342 343 341 341 342 342 342 341 342 342 340 342 343 344 344 344 343 343 342 342 343 344 344 343 344 343 342 342 342 341 342 342 341 340 341 344 345 344 344 343 342 342 343 342 342 343 343 343 341 339 340 341 342 342 342 341 339 337 337 337 337 337 338 338 338 338 338 338 338 339 339 337 335 333 333 333 334 335 335 336 337 338
340 341 340 341 342 341 341 342 343 342 342 343 342 341 342 343 344 343 344 344 343 343 342 342 343 344 344 343 343 342 342 342 341 340 339 340 340 340 343 345 345 344 343 342 342 343 342 343 343 342 342 342 341 340 340 341 341 339 337 334 332 331 330 330 332 334 336 336 336 337 336 336 337 337 336 335 334 333 334 335 336 335 337 339 339
339 339 339 341 343 343 343 343 343 343 342 343 343 342 343 343 343 343 343 343 344 344 342 342 343 344 344 343 342 341 342 342 341 340 337 338 340 340 343 345 345 345 343 343 344 343 342 343 342 341 341 342 342 341 339 340 338 336 332 329 327 326 326 326 327 330 331 333 334 334 333 334 336 335 334 335 335 335 335 334 334 335 337 338 339
337 337 339 343 344 344 345 344 344 344 343 342 343 344 343 342 342 343 343 342 343 344 343 342 343 343 343 343 342 341 342 342 341 340 337 337 339 340 343 345 345 344 343 343 343 343 343 342 341 340 341 341 341 341 341 340 336 334 331 328 327 326 325 326 326 327 328 329 329 330 331 333 334 331 331 332 332 332 331 329 330 332 334 334 335
335 337 342 345 345 345 345 344 343 342 342 342 342 343 343 343 341 342 343 342 342 342 343 342 343 343 343 343 342 341 341 341 340 339 339 339 338 338 343 345 344 344 343 343 343 342 342 341 340 341 341 339 339 340 341 339 337 335 333 330 327 326 325 325 326 326 326 327 326 326 328 330 330 328 328 329 328 328 328 328 328 329 329 330 330
336 340 344 346 346 345 344 343 342 342 342 341 341 342 343 342 341 341 342 342 342 342 343 343 343 343 343 342 341 341 341 341 340 339 339 339 338 340 343 344 344 344 343 342 342 342 342 341 340 341 341 339 339 341 341 338 337 336 333 330 328 326 325 325 325 326 326 326 326 326 327 327 327 327 327 328 328 328 328 328 328 328 329 329 329
339 341 344 345 345 345 344 343 342 343 343 341 340 341 342 342 341 341 341 342 342 342 343 343 343 343 343 341 341 341 341 341 339 339 339 338 339 342 343 343 343 342 341 341 341 342 341 340 340 341 341 340 341 341 339 337 336 335 333 332 330 327 326 326 325 325 326 326 326 326 327 327 327 327 327 327 328 328 328 328 328 328 328 329 328
342 343 344 345 345 345 345 343 342 343 343 342 340 340 342 342 341 341 341 342 341 342 342 343 343 343 343 342 341 341 341 339 338 339 339 339 339 340 340 341 342 342 341 341 341 341 340 339 341 342 340 340 340 339 337 337 337 336 335 335 333 331 329 328 327 325 325 325 325 326 326 326 327 327 327 327 327 327 327 328 328 328 328 328 328
344 344 345 345 344 345 345 344 342 343 344 342 341 340 342 342 342 342 342 341 341 342 342 342 343 343 342 341 341 341 340 339 338 337 340 341 338 337 338 339 341 342 342 341 341 341 339 339 340 339 339 339 339 338 338 338 338 338 337 336 335 333 330 329 328 328 326 326 326 326 326 326 326 327 327 326 327 327 327 327 327 328 328 328 327
344 345 345 345 344 345 345 344 342 342 344 343 342 341 342 342 342 342 342 341 342 342 341 341 342 341 342 342 340 339 339 339 337 337 340 340 337 337 337 338 340 340 341 340 338 337 337 337 338 337 338 339 338 338 338 338 339 339 338 337 336 334 330 329 329 328 328 327 327 327 327 327 326 326 326 326 326 326 326 326 326 326 326 326 326
344 344 345 345 345 345 344 344 341 341 343 343 342 341 341 342 343 342 342 342 342 341 341 341 341 341 341 341 340 339 338 339 338 338 338 337 336 336 336 336 337 338 338 336 333 334 335 336 337 338 339 339 338 339 339 340 340 340 340 339 338 336 333 332 330 327 328 328 326 327 326 325 324 324 324 324 324 324 324 324 323 324 325 325 325
344 343 344 345 345 345 344 343 341 341 344 343 342 342 342 342 343 343 341 342 342 342 342 342 341 341 341 341 340 339 337 339 340 338 336 336 336 335 332 331 331 333 333 332 332 333 335 336 338 339 339 339 339 339 340 340 341 340 341 340 340 339 337 334 330 327 328 326 324 324 323 322 322 323 323 322 322 322 324 326 327 329 330 332 333
344 343 344 346 344 344 344 342 341 342 344 343 342 342 342 343 344 343 342 343 342 342 342 342 341 339 340 340 338 337 338 340 340 337 336 336 334 331 329 327 328 330 331 331 332 333 335 337 339 340 340 340 340 340 340 340 341 341 341 341 340 339 337 333 329 326 326 324 323 323 322 323 323 323 325 326 327 329 331 334 336 337 338 338 340
343 343 344 344 344 343 342 341 342 343 344 344 342 342 343 343 344 344 344 344 343 342 342 342 340 339 339 339 339 339 340 340 338 337 337 336 333 329 329 329 330 331 331 332 332 334 336 338 340 340 340 340 340 340 340 340 341 341 341 341 340 338 337 332 327 325 324 324 323 323 323 324 325 327 331 334 336 337 338 340 341 341 341 341 342
344 343 343 343 343 343 342 342 343 344 345 345 344 343 343 342 343 344 344 344 344 343 343 343 342 342 342 341 341 341 340 338 336 336 336 334 331 329 329 329 330 330 331 331 333 335 337 339 340 340 340 340 340 340 340 340 341 341 341 341 339 337 334 330 326 325 324 324 325 325 326 329 331 334 336 339 339 340 341 342 342 342 342 341 342
344 343 342 343 344 343 343 343 343 344 345 344 344 343 343 342 343 344 343 343 344 344 343 342 342 342 342 341 340 339 337 336 334 333 333 331 329 328 329 329 329 329 330 332 334 337 338 339 340 340 341 340 340 340 340 340 340 340 340 339 338 336 331 328 326 327 327 327 328 330 332 335 337 338 338 340 341 342 342 342 342 341 341 340 340
344 342 343 343 344 344 344 344 344 344 344 343 344 343 343 344 344 344 343 342 343 342 341 341 341 340 339 338 337 336 334 333 331 330 330 330 330 331 332 332 332 333 334 335 337 338 339 339 340 341 341 340 340 340 340 340 339 339 339 339 338 336 333 330 330 331 331 332 333 335 337 339 340 340 339 340 340 341 341 340 339 338 338 337 338
343 343 344 343 344 345 344 345 344 344 344 343 344 344 344 344 344 344 343 342 341 340 339 338 339 338 337 335 334 333 331 330 329 329 330 330 331 333 334 336 337 338 338 339 339 339 340 340 341 341 341 341 341 340 339 339 339 338 338 339 340 340 338 336 336 336 336 336 337 338 339 340 340 339 339 339 338 338 338 337 337 335 336 337 338
343 344 344 343 344 345 345 345 344 344 344 343 344 344 344 344 344 344 343 341 339 338 337 336 336 336 335 334 333 332 331 330 330 330 331 332 333 334 336 338 339 341 341 341 341 341 341 341 341 341 341 341 340 340 340 339 338 338 338 340 342 342 341 339 338 337 337 338 339 339 339 339 338 337 337 337 337 336 335 335 335 336 337 338 339
342 344 344 343 344 345 344 345 345 344 344 344 344 343 343 343 343 342 341 339 338 337 335 334 334 335 333 333 334 334 334 334 334 334 334 335 335 335 337 339 340 341 341 341 341 341 341 341 341 341 341 341 341 340 340 338 338 338 339 341 343 343 341 340 339 339 338 339 339 339 338 337 336 335 335 335 335 334 334 335 336 337 338 340 342
342 344 344 344 345 345 344 345 345 344 344 343 342 342 342 342 342 341 340 339 337 335 334 333 333 334 333 334 335 336 337 338 338 338 338 339 338 338 338 340 341 340 341 341 341 341 341 341 341 341 340 341 341 341 341 340 339 340 341 342 343 342 341 341 341 339 339 338 338 337 336 335 335 334 334 334 334 334 335 336 337 339 341 342 344
342 343 344 345 345 344 343 344 344 344 343 342 342 342 342 341 340 339 338 336 334 334 333 334 334 334 334 335 336 338 339 340 340 340 340 340 340 340 340 340 340 340 340 341 341 341 341 341 341 341 341 341 342 342 342 341 341 342 343 343 343 342 342 343 343 342 341 339 339 338 337 336 336 336 336 335 335 335 335 336 338 340 342 345 346
342 343 344 344 343 342 342 343 343 343 341 341 341 341 340 339 338 336 335 334 333 334 334 334 334 334 334 336 338 340 341 342 343 343 343 342 342 341 340 340 339 339 340 340 340 340 341 341 341 341 341 341 342 343 343 343 343 343 343 343 343 342 342 343 344 344 344 344 343 342 341 339 338 337 335 335 334 335 335 337 340 343 345 347 348
343 345 344 342 341 340 341 341 342 342 340 341 339 337 336 336 335 334 334 334 334 335 335 335 334 334 335 337 340 342 343 344 345 345 345 345 345 344 343 342 340 339 339 340 340 341 342 342 342 342 342 341 342 343 344 343 343 343 343 342 343 342 342 342 343 343 344 345 345 345 344 342 339 335 334 334 334 335 338 340 342 344 346 347 348
342 344 341 340 340 339 340 340 340 340 340 339 337 334 334 334 335 335 335 335 336 336 336 334 334 335 336 338 341 342 344 345 346 346 346 346 346 345 345 343 340 338 339 340 341 342 342 343 343 342 341 342 343 344 344 344 344 344 344 343 342 342 341 342 343 343 343 344 344 344 344 343 340 336 334 335 335 338 340 342 343 344 345 346 347
341 341 340 339 339 339 339 339 339 340 339 339 336 334 335 335 334 334 334 335 336 335 336 336 337 339 340 341 341 343 344 345 346 346 345 345 345 345 345 344 341 339 340 340 341 342 344 344 343 342 341 341 343 345 345 345 345 344 345 344 343 342 342 342 343 343 343 343 343 343 343 342 340 338 337 338 339 340 341 343 344 345 345 345 345
340 340 340 339 338 339 339 339 339 339 340 339 336 334 335 335 334 334 334 335 336 336 338 340 342 344 344 344 344 345 345 345 346 346 345 344 344 344 345 345 342 340 340 341 341 343 345 344 343 342 342 342 342 344 345 344 345 344 344 344 343 342 342 342 342 342 342 342 343 343 342 342 341 340 340 341 342 342 342 343 343 344 344 344 344
340 339 339 339 338 338 339 339 339 339 339 339 337 335 335 335 335 334 334 335 336 337 340 342 344 345 346 346 346 346 346 346 346 346 345 344 344 344 344 344 343 341 340 341 342 344 345 344 343 342 343 343 342 343 344 344 344 343 343 344 343 342 341 342 342 342 342 342 342 342 341 341 341 341 342 342 343 343 343 343 343 343 344 343 344
340 340 339 338 339 338 338 339 339 339 338 337 337 336 335 337 338 336 335 335 337 338 340 341 343 344 345 346 346 346 346 346 346 345 344 344 344 345 344 344 343 342 341 341 342 344 345 344 343 343 343 343 342 342 343 343 344 343 342 343 343 341 342 342 342 343 343 342 342 341 341 341 341 341 341 342 342 342 343 344 344 344 344 344 345
340 340 339 338 338 339 338 339 340 339 338 337 336 336 336 338 340 338 338 338 340 341 342 342 343 344 345 346 346 346 346 345 345 345 344 344 344 345 344 343 343 342 342 342 342 344 344 344 343 343 343 342 342 342 342 342 343 343 342 342 342 341 342 342 342 342 342 342 341 341 341 340 340 341 341 341 341 341 342 343 344 344 344 345 346
341 341 339 338 338 338 338 339 340 340 340 338 336 336 336 339 341 340 340 340 341 342 343 343 344 344 344 345 345 346 346 345 345 344 344 344 344 345 344 344 343 343 343 343 344 344 344 344 344 343 342 342 341 342 342 342 343 343 343 342 342 341 341 342 342 342 342 342 341 341 340 340 340 341 341 341 341 341 342 342 344 345 345 345 346
341 342 340 338 337 337 338 339 339 340 340 338 337 336 337 339 341 341 341 342 342 342 342 342 343 343 343 343 343 344 345 345 345 344 344 344 344 344 344 345 344 343 344 344 344 344 344 345 345 343 343 342 342 342 342 342 342 342 342 341 342 341 342 342 342 342 342 341 341 341 341 340 341 341 341 341 341 341 341 342 342 344 344 345 345
340 342 341 339 337 337 337 338 338 339 339 338 337 337 338 338 339 341 342 342 341 341 341 341 341 341 341 342 342 343 345 346 346 345 344 344 344 344 345 345 345 344 344 344 345 344 344 344 345 344 343 343 343 342 342 342 342 343 343 342 342 341 342 342 341 342 341 341 341 341 341 341 341 341 341 342 342 341 341 342 342 343 344 345 346
340 342 342 340 338 337 337 337 338 338 338 338 338 339 339 339 339 340 341 341 340 340 340 339 339 339 340 341 342 342 344 346 347 346 345 344 344 344 344 345 345 344 344 344 344 344 344 344 345 345 344 343 343 342 342 342 343 344 344 344 343 342 342 341 341 342 341 341 341 341 341 341 342 342 341 341 342 342 341 342 343 343 345 345 346
340 341 342 342 340 338 338 338 338 338 337 337 338 339 340 340 341 341 340 339 339 339 339 338 338 339 341 341 341 341 343 346 347 348 347 345 343 344 344 344 344 344 344 343 344 344 344 344 345 345 344 344 344 342 343 343 344 344 344 345 343 342 343 341 341 341 341 341 341 341 341 341 343 342 341 341 341 342 342 342 342 344 344 345 346
341 341 342 342 342 341 340 340 339 340 339 337 337 339 340 341 341 340 338 338 338 338 338 338 338 339 340 341 341 341 342 345 347 348 348 346 344 343 344 344 345 344 343 343 344 344 344 344 345 345 344 345 344 343 343 343 343 344 345 345 344 344 346 344 341 341 341 342 341 341 341 342 343 342 341 342 342 342 342 342 342 343 345 345 345
341 341 341 342 342 342 342 342 341 341 341 340 338 340 341 341 340 339 338 339 340 340 339 338 338 339 340 340 340 340 341 343 346 346 346 346 344 343 344 345 344 344 343 343 344 344 344 344 345 345 345 345 343 342 343 343 343 344 344 345 346 347 348 345 343 342 342 343 343 341 340 342 343 341 341 343 343 343 342 342 342 343 344 345 345
342 340 340 341 342 342 343 344 343 342 343 342 341 341 342 341 340 339 339 340 342 343 342 341 341 341 342 342 340 339 340 342 344 344 345 346 344 344 344 344 344 343 343 343 343 343 343 344 345 345 345 345 343 342 343 344 344 344 344 345 346 347 346 346 346 345 343 343 343 343 343 343 343 343 343 344 345 344 344 343 343 344 344 345 344
343 341 340 341 342 342 342 343 344 343 343 344 343 342 343 342 341 341 342 342 343 345 345 345 345 345 344 343 341 339 339 341 342 342 343 345 345 344 345 344 343 343 343 343 343 344 344 344 345 345 345 345 344 342 344 344 344 345 346 346 345 345 345 346 347 348 347 346 345 344 345 345 345 345 345 346 346 345 344 344 345 345 344 344 344
345 343 342 342 342 343 342 342 342 343 344 345 344 343 343 342 342 343 343 344 345 345 346 346 346 346 345 344 341 340 339 340 341 342 342 344 345 344 345 344 343 343 343 344 345 346 345 345 345 345 346 346 345 344 344 345 345 346 346 346 346 345 344 344 345 346 348 349 347 346 346 345 346 347 346 347 347 345 344 345 345 345 344 344 345
345 345 344 344 343 342 342 341 341 342 343 344 344 344 344 344 344 344 344 344 345 346 346 346 346 346 346 345 343 340 340 340 340 341 342 343 344 344 344 344 344 344 343 344 345 346 347 347 346 346 347 347 346 346 345 346 347 348 347 346 346 345 345 346 345 346 347 347 347 347 347 346 347 347 346 347 348 346 344 344 345 346 345 345 346
345 345 346 345 344 342 342 341 340 340 342 343 343 344 344 344 344 343 343 344 345 346 346 347 347 347 347 346 344 341 340 340 340 341 341 342 343 343 344 345 344 344 343 344 345 346 346 347 347 347 347 347 347 346 346 346 346 347 347 347 347 346 347 347 347 347 346 346 347 348 348 347 348 347 346 347 347 346 344 344 347 348 346 345 346
345 345 346 346 345 343 342 341 340 340 342 344 343 343 343 344 344 344 344 345 346 346 346 346 347 347 347 346 345 342 341 340 340 341 341 342 343 343 344 345 344 344 343 344 345 346 346 347 347 347 347 345 345 345 345 347 347 346 347 347 348 347 347 348 348 347 346 347 348 348 348 347 347 349 347 346 346 348 347 346 349 350 346 345 346
Wind_Speed
15 15 14 13 11 12 13 13 12 13 13 11 13 14 14 13 12 11 11 11 11 14 14 13 13 12 12 12 12 12 12 12 12 13 14 14 14 14 15 15 15 16 17 17 17 17 17 16 17 18 17 17 17 17 16 15 15 15 16 16 16 17 17 17 17 17 18 18 18 17 17 17 16 15 15 15 13 13 13 13 13 13 12 11 11
18 16 14 12 11 11 12 13 12 12 13 12 13 13 15 15 13 13 12 11 12 13 13 13 12 11 11 12 12 13 14 14 13 14 15 14 14 14 15 16 16 17 16 17 16 16 16 16 17 17 17 17 16 16 16 15 15 15 15 15 15 16 16 16 16 17 17 17 17 17 17 17 16 16 16 15 14 13 13 13 13 13 12 12 12
17 16 14 12 11 11 10 11 12 12 13 13 13 11 12 14 13 12 10 10 12 11 12 12 11 11 12 13 13 14 14 15 15 15 15 14 14 14 14 16 16 17 16 16 16 16 16 15 16 17 17 16 15 15 15 15 15 14 14 14 15 15 15 16 16 16 16 16 17 17 17 16 16 15 15 15 14 13 13 13 13 12 12 12 11
16 15 14 13 12 11 10 10 11 12 13 13 13 11 10 11 10 10 9 9 10 10 10 10 10 11 13 13 12 13 15 16 16 15 15 14 14 14 14 16 16 16 16 16 15 16 17 15 14 16 17 16 15 15 15 15 15 15 14 14 14 15 15 15 15 15 16 16 16 16 16 15 15 14 13 13 12 12 12 12 12 11 11 11 10
16 15 14 14 12 11 10 10 9 9 10 11 12 11 10 10 9 9 8 9 9 10 10 9 10 11 12 12 12 13 14 16 16 16 14 13 13 13 14 16 16 17 17 16 16 16 17 16 14 15 16 16 15 15 15 15 15 15 15 14 14 14 14 14 15 15 15 15 15 15 15 14 14 12 11 10 10 9 9 10 10 9 9 9 9
16 15 15 13 12 11 9 9 8 6 7 8 9 9 9 9 9 8 8 8 9 9 9 9 9 9 11 11 12 12 13 14 15 15 12 12 12 12 14 15 16 17 17 17 17 17 16 15 15 15 16 16 15 15 14 15 15 15 15 15 15 14 14 14 14 14 14 14 14 14 13 12 12 10 9 9 8 8 8 8 8 7 7 7 7
16 15 14 12 10 9 8 7 6 5 5 5 7 7 8 9 9 8 7 8 9 9 9 8 9 9 10 11 11 11 12 13 13 14 11 12 13 11 13 15 16 17 16 17 17 16 16 15 15 15 16 15 15 15 15 15 16 15 15 14 14 13 13 13 13 13 13 12 12 12 11 10 10 9 8 8 8 8 8 8 7 7 7 7 7
15 13 12 10 8 7 7 7 5 4 5 5 6 6 8 8 8 7 6 7 8 8 8 8 9 9 9 10 10 10 12 12 12 12 11 12 12 11 12 14 16 17 17 16 16 16 16 16 15 16 16 15 13 14 15 15 15 15 14 13 13 12 12 12 12 11 11 11 11 10 10 10 9 9 8 8 8 8 8 8 8 8 8 8 8
13 11 10 8 7 7 7 7 5 4 4 5 5 6 8 8 7 8 7 6 7 7 7 8 9 9 9 9 10 10 10 11 10 11 12 11 11 10 9 12 14 16 17 16 16 15 16 16 15 16 15 15 13 13 14 15 14 14 14 13 12 11 10 10 10 10 9 9 9 9 9 9 8 7 6 7 7 7 8 8 8 8 8 8 8
12 11 11 9 8 8 8 6 5 5 4 5 5 5 7 7 7 7 8 7 7 7 8 8 8 9 9 9 9 10 10 10 10 10 11 9 9 10 8 10 13 15 16 15 15 15 15 15 15 15 15 14 14 14 14 14 14 14 13 13 12 11 10 9 9 8 8 8 8 8 8 9 8 6 6 7 7 8 9 8 7 7 7 7 7
11 11 11 10 9 8 7 5 5 4 3 4 4 4 5 6 7 7 8 7 7 7 7 8 8 8 9 9 9 10 10 10 10 10 10 8 8 10 8 9 11 14 15 14 15 15 15 15 15 15 14 14 14 15 15 14 13 13 13 13 13 13 12 11 10 8 8 8 8 8 8 9 8 7 8 9 9 9 9 8 7 7 6 6 6
11 11 11 10 8 7 6 5 4 3 3 4 4 4 4 4 5 6 7 7 7 7 7 8 9 9 9 9 9 10 10 10 10 10 10 8 9 10 8 8 11 13 13 14 14 14 15 15 14 14 15 15 15 15 15 14 13 12 13 13 14 13 13 12 12 10 10 9 9 9 9 9 8 8 9 9 8 8 7 7 7 6 5 5 4
12 11 11 9 7 7 6 5 4 3 3 3 3 4 5 4 5 6 6 7 7 8 8 8 9 9 10 10 9 10 10 10 10 10 10 8 9 11 8 8 11 12 12 13 13 13 14 14 14 15 15 14 15 15 14 14 13 12 13 13 13 13 13 12 12 12 11 11 11 11 10 9 8 8 9 8 8 7 7 6 6 5 4 4 3
12 11 10 8 7 7 6 6 5 4 3 4 4 4 6 5 5 6 6 7 7 8 8 9 9 10 10 10 10 10 11 10 10 10 10 8 8 10 10 9 11 12 12 12 13 13 13 13 14 15 14 14 15 14 14 15 14 13 13 13 14 13 12 11 11 11 11 11 11 10 9 8 8 8 8 7 7 6 6 6 6 5 4 3 3
11 10 9 7 7 7 7 6 5 5 4 5 5 5 6 5 5 6 6 7 7 8 9 10 10 10 11 10 10 10 11 10 10 10 9 9 8 9 10 10 11 12 12 12 13 13 12 12 13 13 13 14 14 13 14 15 15 15 14 13 14 13 12 11 11 10 10 9 9 9 8 8 7 7 6 6 7 6 6 5 4 3 3 3 3
10 9 8 7 7 7 7 6 5 5 5 6 6 5 6 6 6 6 7 8 7 8 9 10 11 11 11 11 11 10 11 10 10 10 9 11 9 7 8 10 12 12 12 13 13 13 12 12 13 12 12 13 14 15 15 15 15 15 14 13 13 13 12 11 10 9 9 8 7 7 7 6 6 5 6 7 6 6 5 4 3 2 2 3 3
9 8 8 7 7 7 7 6 4 5 5 6 6 6 7 7 6 6 8 8 8 8 9 11 11 11 11 11 12 11 11 10 9 9 10 11 9 7 8 9 11 11 12 12 12 11 12 12 12 12 12 13 14 14 14 15 15 15 14 14 13 12 12 11 9 8 8 7 6 6 6 6 6 6 6 6 5 4 4 3 3 3 3 4 4
8 7 7 7 7 7 6 5 4 4 5 5 6 7 7 7 7 7 8 8 9 8 9 11 11 12 12 12 13 13 12 11 9 9 10 10 8 8 9 9 10 11 11 11 12 12 12 12 12 12 13 13 13 13 14 15 14 15 15 15 13 12 12 10 9 8 7 7 6 6 6 6 7 6 5 5 5 4 4 4 4 5 5 5 4
8 7 7 7 8 7 7 5 4 4 5 5 7 8 8 8 8 8 8 9 10 10 10 11 12 12 13 14 13 13 13 12 11 11 10 9 9 10 10 10 11 11 11 11 12 12 12 11 11 12 13 14 14 14 14 13 13 14 14 14 13 12 11 10 8 8 7 7 7 6 6 7 7 6 5 5 5 5 5 6 7 7 6 6 5
8 8 7 8 8 8 7 5 4 5 6 6 8 9 9 9 9 9 10 10 11 11 12 12 13 14 14 15 14 13 13 13 13 12 10 11 12 12 12 13 13 13 13 13 13 12 11 11 12 12 12 13 14 13 12 12 12 12 12 12 12 12 10 8 8 8 7 7 7 7 7 8 8 7 6 7 7 8 8 9 9 8 8 8 7
8 8 8 8 8 7 6 5 5 6 8 8 9 10 10 10 11 11 11 12 12 13 13 12 14 14 15 15 15 13 13 13 12 12 12 12 14 15 16 16 15 15 14 14 13 12 12 12 12 12 12 12 12 12 11 11 11 10 10 11 12 11 10 8 8 8 8 8 8 8 8 8 8 8 8 9 9 10 10 10 10 9 9 8 7
8 9 9 8 7 7 7 7 6 7 9 10 10 11 11 11 12 12 12 12 13 14 14 14 14 15 15 15 15 13 13 13 13 13 13 14 15 16 17 16 16 15 14 13 12 11 11 11 11 11 11 11 11 10 10 9 9 9 10 12 12 11 9 9 8 8 8 9 9 8 8 8 8 9 9 10 11 11 11 10 10 9 8 7 7
8 8 9 9 8 8 8 8 8 8 9 11 11 11 12 12 13 13 12 13 14 15 15 15 16 16 16 15 14 13 13 13 13 14 14 15 16 16 16 15 14 13 12 12 11 11 11 11 10 10 10 10 9 9 8 8 8 9 11 11 11 11 10 9 8 8 9 9 9 8 8 9 8 9 10 11 11 12 11 10 9 9 8 7 7
7 8 9 9 9 9 10 10 9 9 10 12 12 12 13 13 13 14 13 14 15 15 16 16 16 16 16 15 14 14 14 14 14 15 16 17 17 16 15 14 13 12 12 11 11 10 10 10 9 9 9 8 8 7 7 7 8 10 11 11 11 11 10 9 9 9 9 9 9 9 9 9 9 9 11 12 12 11 10 9 8 8 9 9 9
7 8 9 9 10 11 11 11 10 10 11 12 13 14 14 13 14 14 14 14 15 15 15 16 16 16 15 15 15 15 15 16 17 17 17 17 16 15 14 13 13 12 12 11 11 10 10 9 8 8 7 7 7 7 7 8 9 10 11 11 11 11 10 9 9 10 10 10 10 9 9 10 10 11 11 11 11 10 9 9 9 10 11 11 11
8 8 9 10 11 11 11 11 11 12 11 12 13 14 14 14 14 15 14 14 15 16 16 17 17 16 16 16 16 16 17 17 18 17 16 16 15 14 13 12 12 11 11 11 10 10 9 8 7 6 6 6 6 7 7 8 9 10 10 11 11 12 11 9 9 10 10 10 10 10 10 11 11 11 11 11 10 10 10 10 10 12 13 13 13
8 8 9 11 12 12 12 12 13 13 12 13 13 14 14 14 14 15 15 16 16 17 17 18 17 17 17 17 17 17 17 17 17 16 15 14 13 12 11 11 10 10 10 10 9 9 8 8 7 6 6 6 6 7 7 8 9 10 11 11 12 12 12 10 10 10 11 11 11 11 11 11 11 11 11 10 10 10 11 12 12 13 13 14 14
8 9 10 11 13 13 12 12 13 13 13 14 14 14 14 14 15 15 16 17 17 17 17 17 17 17 18 18 17 17 16 16 15 14 13 12 11 10 9 9 8 8 8 8 8 8 8 8 7 7 6 6 7 7 8 9 10 11 10 11 11 12 12 12 11 12 12 12 11 11 11 11 11 11 11 11 11 11 12 13 13 13 13 14 14
9 9 9 12 13 13 13 13 14 14 14 15 15 15 15 15 16 16 17 17 17 17 17 18 18 18 18 17 17 16 15 15 14 13 12 10 9 8 8 7 6 6 6 7 7 7 8 8 7 7 7 7 7 8 9 10 11 11 11 11 11 12 12 13 12 13 13 13 12 12 11 11 11 11 11 11 12 12 12 13 12 12 13 13 13
10 9 9 11 13 13 14 14 15 14 15 15 16 16 15 15 16 17 17 17 18 17 17 18 18 18 17 17 16 15 14 14 12 12 10 9 8 7 6 5 5 5 5 5 6 6 7 7 7 7 7 7 8 9 10 10 11 10 11 11 11 11 12 13 13 13 14 14 14 13 12 12 12 12 12 12 12 12 12 12 12 12 12 13 13
10 9 9 11 13 15 15 15 15 15 16 16 16 16 16 16 16 17 17 17 17 16 16 17 17 17 17 16 15 14 13 12 11 10 9 8 7 5 5 4 4 4 4 4 5 6 6 7 7 7 7 7 7 8 10 10 11 10 10 11 10 11 11 11 11 12 13 13 13 13 13 12 12 12 12 12 12 12 11 11 11 12 12 13 13
10 9 10 12 14 16 16 16 16 16 17 17 17 18 17 17 17 17 17 16 16 16 16 16 17 17 16 15 13 12 11 11 10 10 9 7 6 5 4 4 4 4 4 4 4 5 6 7 8 8 8 7 7 8 9 10 10 10 10 10 10 10 10 11 11 11 12 12 12 12 12 12 12 12 12 12 11 11 11 11 11 11 11 12 12
10 10 11 14 16 17 17 17 17 17 17 17 19 19 18 17 17 16 16 16 16 16 16 17 17 16 15 13 11 10 10 9 9 8 8 7 6 5 4 4 5 5 4 4 3 4 6 7 8 8 8 7 8 9 10 10 10 10 9 9 9 9 9 9 10 10 11 11 12 12 12 12 12 12 12 11 11 10 10 10 10 10 10 11 11
11 12 14 15 17 19 18 18 17 17 17 17 19 20 19 18 18 17 17 17 16 17 17 16 15 14 13 12 11 9 9 9 8 7 6 6 6 5 4 4 5 5 5 3 3 4 6 7 7 8 8 7 7 8 9 9 9 9 8 8 8 8 8 8 8 9 10 10 10 11 11 11 11 11 10 9 9 8 8 8 9 9 9 10 10
12 14 15 16 18 19 19 18 18 17 17 17 19 20 19 18 18 17 17 17 17 17 16 15 14 13 12 11 10 9 9 8 7 6 6 6 6 6 5 5 5 5 5 3 2 3 5 6 7 7 8 7 6 6 7 8 8 9 9 8 7 7 7 7 7 7 8 9 9 9 9 10 10 9 8 7 7 7 8 8 8 8 9 9 10
13 14 15 17 18 19 19 18 17 17 17 17 19 19 19 19 18 17 17 17 17 17 15 14 12 11 10 10 9 9 8 7 7 7 7 7 7 7 6 5 5 5 5 3 2 3 5 6 6 6 6 7 5 4 6 7 8 9 9 8 7 7 6 5 6 7 8 9 9 9 9 9 9 8 8 7 7 8 9 9 9 8 9 10 10
14 14 15 17 18 19 19 18 17 17 17 18 19 19 19 18 17 17 17 17 16 15 13 12 10 10 9 9 8 7 6 6 6 6 7 7 7 7 6 5 5 5 5 4 2 2 4 6 6 5 5 5 5 4 5 6 7 8 9 7 6 6 6 6 6 7 8 9 9 8 8 8 8 8 8 8 7 8 9 10 10 10 10 10 11
14 14 15 16 18 18 19 19 18 17 17 18 19 19 19 17 17 17 16 16 14 12 11 10 9 9 8 7 7 6 5 5 5 5 6 6 7 7 6 6 5 5 5 4 2 1 4 6 6 5 5 5 4 3 4 5 6 7 7 6 5 5 5 5 6 7 7 8 7 7 7 7 7 7 8 8 7 7 8 9 9 10 10 10 11
15 14 15 16 17 18 19 19 18 17 17 17 18 19 18 16 16 16 15 14 12 11 10 10 10 9 8 6 6 6 5 5 5 5 5 6 6 6 6 6 5 5 4 4 2 1 3 5 6 5 4 5 4 3 3 4 5 6 5 4 5 4 4 4 5 6 7 6 6 6 6 6 7 7 7 7 7 7 6 7 8 8 9 9 10
16 15 15 16 17 19 20 20 19 18 18 18 18 18 17 16 15 15 14 13 12 11 11 11 10 9 8 6 6 6 5 5 5 5 4 5 6 6 5 5 4 4 4 3 2 0 1 4 5 4 4 4 4 3 3 4 5 5 5 3 4 3 2 3 4 6 6 5 5 5 5 6 6 6 6 6 7 7 6 6 6 7 8 9 10
17 16 16 17 17 19 19 20 19 19 19 18 18 18 17 16 15 15 13 11 11 11 11 11 10 9 8 7 6 6 5 5 5 4 4 4 4 5 4 3 3 3 4 3 2 2 1 2 4 4 4 5 4 3 3 5 5 5 4 3 2 2 2 3 4 5 5 5 4 4 5 5 5 4 5 5 5 6 6 5 5 5 7 9 10
18 17 17 17 18 19 19 19 19 19 18 18 17 16 15 15 14 13 12 11 10 10 10 10 10 9 7 6 5 5 4 4 4 4 3 3 3 3 3 2 2 2 3 3 3 3 2 2 3 4 4 5 5 3 3 5 4 4 4 4 3 1 1 3 4 4 5 4 2 3 4 4 4 4 5 5 5 5 5 5 5 6 7 8 9
18 18 18 17 18 19 19 19 18 18 18 17 16 15 13 13 12 11 10 10 10 10 9 9 9 7 6 5 4 4 4 4 3 3 2 2 1 2 2 2 2 2 3 3 4 3 3 3 3 4 5 5 5 3 3 4 4 4 5 5 5 4 3 4 4 4 5 4 2 1 2 3 4 5 6 6 6 6 6 6 7 7 8 8 9
19 20 19 19 19 19 19 19 19 18 18 17 16 14 13 13 12 12 11 10 10 9 9 8 7 6 5 4 3 3 4 4 4 3 2 2 2 2 2 3 2 2 3 4 4 4 3 3 3 4 5 5 5 4 4 5 5 5 5 5 6 5 4 5 5 4 4 4 3 2 3 4 5 6 7 8 8 8 7 7 8 8 9 8 9
20 20 21 21 20 20 19 19 19 18 18 17 17 15 14 14 14 13 13 12 10 9 8 8 6 5 4 3 3 3 4 5 5 4 3 3 3 3 3 3 3 2 3 4 4 4 4 4 4 5 5 5 5 5 5 5 5 5 5 5 5 4 4 6 5 3 4 4 3 3 4 5 6 8 9 9 10 9 7 7 8 9 9 9 10
21 20 21 20 20 20 19 19 19 18 18 17 17 16 15 15 15 14 14 12 11 10 9 7 5 4 3 2 3 3 4 5 6 5 4 4 4 3 3 3 3 3 3 4 4 4 4 5 5 5 5 5 6 5 4 5 5 5 5 5 4 3 5 6 5 4 4 4 4 4 5 6 7 8 9 9 9 9 8 8 9 10 10 11 12
21 20 20 20 19 19 19 19 19 19 18 18 18 17 16 15 15 14 13 12 11 9 8 6 4 3 3 3 3 4 5 5 5 5 4 4 4 3 3 3 3 3 4 4 4 4 4 5 5 5 6 6 6 5 4 4 4 4 5 4 4 4 4 5 4 4 5 5 5 4 4 6 7 6 7 8 8 8 8 9 9 10 11 11 11
21 22 21 20 19 19 19 19 19 19 19 19 19 18 17 16 15 14 13 11 10 8 7 5 5 4 4 4 4 4 5 5 5 5 5 5 4 4 3 3 4 4 4 4 4 4 4 5 5 6 6 6 6 5 4 4 3 4 4 4 4 4 4 4 5 5 5 6 6 4 5 7 6 5 7 7 8 9 9 10 10 10 11 10 10
20 22 21 20 19 19 19 19 19 20 19 19 19 19 18 17 16 14 13 11 9 8 7 6 5 5 5 5 5 5 5 5 5 5 5 5 4 4 4 4 4 4 4 5 5 5 5 5 6 6 6 7 6 6 5 4 3 4 4 4 5 5 5 6 6 6 7 7 6 6 8 9 7 6 7 7 8 9 10 10 10 10 10 10 10
19 21 21 20 19 20 20 20 20 20 19 19 19 20 19 18 17 16 14 12 10 9 8 7 6 6 5 6 6 6 6 6 6 6 6 5 5 5 5 5 5 5 5 5 5 5 5 6 6 7 7 7 7 7 7 6 5 4 5 5 5 6 6 6 6 6 7 8 7 8 8 9 8 8 8 8 8 9 10 9 8 8 10 10 10
19 21 22 20 20 20 20 20 20 20 19 19 19 20 20 19 18 16 14 12 10 9 9 8 7 6 6 7 7 7 6 7 7 7 7 6 6 6 5 6 6 6 6 6 6 6 6 6 7 7 8 8 8 8 8 7 7 6 6 6 6 6 6 6 6 7 8 7 7 8 7 8 8 7 8 8 8 8 8 8 6 7 9 9 9
Wind_Direction
157 159 152 150 149 145 147 148 144 140 139 142 150 150 144 145 146 152 151 142 129 114 109 107 106 103 101 101 101 100 98 101 108 117 120 118 114 112 110 109 108 106 105 103 100 99 100 99 96 95 95 95 98 99 98 97 97 98 98 98 100 101 102 102 103 104 104 104 104 103 102 99 99 100 100 99 99 100 99 100 98 95 95 97 100
158 161 157 156 154 153 154 147 142 140 134 131 140 151 149 145 152 156 154 142 123 113 111 107 105 103 103 104 105 102 100 100 105 115 119 119 117 114 112 111 110 108 106 104 103 100 99 99 98 97 96 95 95 96 97 97 95 95 95 96 98 99 100 100 101 102 103 103 102 101 99 98 97 97 96 96 95 95 96 98 97 96 98 98 97
161 162 162 161 157 156 152 143 138 135 129 129 132 142 145 143 147 143 136 124 115 112 110 106 106 106 104 106 107 106 104 103 107 115 118 119 117 115 113 111 112 111 110 108 105 102 99 98 99 99 96 96 97 97 100 99 97 96 95 94 94 95 98 99 99 100 102 102 100 99 97 97 96 94 93 93 93 92 93 95 95 95 96 95 94
166 163 163 160 158 154 149 144 135 131 130 131 128 127 131 132 130 122 120 115 114 114 109 108 108 107 105 106 108 107 106 106 108 114 119 121 120 119 115 113 115 116 114 110 107 104 101 99 97 97 97 98 99 99 100 98 99 99 96 94 94 94 96 97 99 100 100 100 100 99 97 95 92 90 91 93 94 94 92 93 95 97 96 95 97
165 161 158 155 154 149 146 143 132 132 127 123 120 120 124 125 121 119 123 121 119 117 114 114 110 107 106 107 108 108 108 109 111 116 122 124 121 121 118 116 119 119 116 112 108 104 102 102 100 98 99 100 99 99 99 98 98 98 96 94 93 94 95 96 98 100 100 100 99 97 96 93 88 86 87 92 96 97 98 98 98 98 99 101 101
159 155 152 151 150 144 143 135 126 121 111 110 110 117 123 121 122 129 135 130 129 123 120 121 115 110 110 111 109 109 110 112 116 121 125 122 120 120 119 120 121 120 118 113 109 106 103 101 101 98 97 99 99 99 98 98 97 96 95 94 94 94 95 96 96 96 98 98 96 93 91 88 86 84 81 86 92 97 99 102 103 103 105 105 100
153 150 148 147 143 138 133 122 121 116 106 104 105 124 127 121 122 129 138 136 136 129 122 122 120 116 113 112 111 112 113 115 120 124 124 121 124 124 122 124 123 121 117 114 111 108 106 103 100 99 99 101 100 98 98 98 97 96 94 95 96 95 95 94 92 92 94 94 91 87 86 83 83 82 77 79 86 93 95 95 99 102 102 99 96
151 148 145 140 134 135 130 125 130 122 114 112 113 129 125 121 124 128 138 136 137 134 127 125 125 122 118 114 113 117 116 117 121 124 124 126 129 127 127 126 125 122 117 114 111 108 107 106 102 101 100 100 99 98 99 98 97 96 95 94 94 94 93 91 90 90 92 90 86 83 81 79 77 76 72 75 80 86 91 92 91 93 92 92 93
150 145 143 137 136 140 135 135 135 126 125 123 120 126 125 126 129 136 138 130 132 135 135 132 129 126 124 121 119 121 119 120 124 124 122 125 130 130 129 126 124 120 117 116 112 109 108 108 105 102 99 99 100 97 95 93 93 93 92 91 90 90 89 88 89 89 87 84 81 79 79 79 76 72 69 72 76 79 87 90 88 87 88 90 91
151 147 146 139 139 137 133 134 130 128 131 126 121 125 132 137 138 140 134 130 132 134 138 136 133 131 129 125 123 124 122 125 126 122 118 121 129 131 130 125 124 120 117 116 113 110 108 107 103 101 100 98 97 94 91 88 87 86 86 85 84 82 80 82 85 87 85 81 77 75 76 80 79 75 73 76 79 81 86 90 94 93 93 93 91
152 147 142 133 129 126 127 127 123 126 127 124 126 133 139 147 147 141 135 136 136 132 135 137 135 135 131 127 128 127 127 129 124 118 117 128 132 129 135 132 124 119 116 115 113 111 109 105 99 99 99 97 97 97 94 89 85 83 82 80 78 77 76 76 78 82 83 81 79 74 70 75 79 80 81 83 85 86 86 86 91 94 94 92 86
150 143 135 125 123 124 123 117 115 113 122 125 130 140 147 158 151 143 139 139 141 135 134 138 137 139 136 133 133 130 129 126 121 116 119 138 139 131 140 137 122 113 113 113 111 111 109 103 97 95 95 98 100 98 95 93 89 84 80 78 77 75 74 74 75 76 77 78 77 77 74 77 79 79 81 82 81 81 82 82 84 89 90 86 79
146 138 128 122 126 123 112 100 93 92 116 123 130 144 148 160 155 149 141 140 144 138 139 140 138 142 141 138 135 130 125 119 121 122 123 138 138 135 138 124 112 106 108 111 111 111 109 103 98 94 94 99 98 97 98 96 92 86 80 77 75 74 74 73 74 74 74 74 73 73 76 79 76 72 74 75 75 75 77 78 80 84 86 85 82
141 135 126 127 134 121 106 99 94 105 125 124 140 148 144 157 153 146 140 139 140 136 141 141 141 145 142 138 134 127 121 121 126 124 126 132 127 130 127 113 108 106 107 110 111 111 107 100 97 98 98 100 99 100 100 94 90 86 81 77 75 74 74 73 74 74 73 73 73 72 73 74 70 67 70 72 74 72 72 73 75 78 79 78 74
139 132 128 132 133 120 109 111 115 125 130 121 135 142 135 148 144 139 133 131 133 134 141 142 142 144 141 137 133 127 124 126 122 117 123 120 109 112 114 111 110 109 111 112 112 111 107 99 96 101 102 101 101 101 96 92 89 85 82 78 76 74 74 74 74 75 75 75 76 75 72 71 69 67 72 73 71 68 67 66 65 62 57 54 47
134 129 129 130 126 117 108 114 121 123 121 113 122 130 131 138 136 133 125 127 132 135 143 142 140 140 138 136 134 130 126 121 111 114 118 107 104 113 116 115 111 110 113 113 113 113 108 100 96 96 95 95 99 100 97 92 87 83 80 76 74 72 71 72 74 77 77 78 78 79 77 74 71 66 68 70 68 67 64 58 54 50 47 41 35
130 128 129 128 122 116 113 116 121 121 120 116 122 128 130 132 133 131 124 129 132 135 143 140 138 138 136 134 133 130 122 114 110 117 112 104 114 126 124 123 119 117 116 114 114 111 105 100 98 95 93 98 103 103 96 89 85 80 76 72 69 66 66 69 72 77 79 81 80 82 82 77 72 65 66 71 70 67 61 57 57 61 53 39 32
132 134 129 125 121 118 118 117 123 126 122 120 121 125 130 130 132 133 129 132 132 136 142 136 137 138 133 130 132 129 121 119 119 110 101 105 121 125 125 128 129 127 120 116 115 112 106 103 100 100 101 105 109 104 93 87 81 76 72 69 66 61 61 65 68 74 79 81 79 80 81 79 77 76 77 79 77 71 65 61 58 55 47 38 36
137 137 131 125 122 120 120 123 139 132 119 121 123 125 128 127 130 134 134 134 131 134 137 135 137 136 132 130 132 131 125 122 112 101 100 110 118 120 126 131 133 132 124 117 114 111 108 105 103 103 103 104 104 98 89 83 76 72 68 66 63 58 55 56 59 67 75 77 76 77 79 83 86 87 87 85 85 83 76 70 65 62 58 55 56
138 140 132 123 121 115 115 125 145 127 115 120 126 126 126 127 131 134 134 131 129 129 131 134 136 134 134 132 130 127 120 112 103 105 113 114 113 115 119 124 129 128 122 117 113 110 109 108 108 106 102 99 97 93 86 79 73 69 65 62 58 56 57 54 53 62 73 76 78 80 84 90 93 91 88 88 91 91 86 78 72 70 68 64 63
138 138 129 119 117 114 116 128 137 120 115 118 122 123 125 129 131 130 128 125 125 126 127 131 132 133 133 129 126 121 113 108 109 115 114 108 109 110 111 114 117 118 117 114 112 111 110 110 108 103 99 96 93 88 83 76 72 65 59 55 52 52 54 53 53 61 73 78 81 85 91 96 95 94 93 92 92 90 85 79 72 67 65 63 61
136 134 126 120 116 118 124 132 133 119 116 116 118 121 122 126 127 124 122 123 125 126 128 129 131 132 130 126 125 123 119 118 118 117 111 109 109 108 110 111 112 113 113 111 110 111 111 110 106 100 98 94 89 84 79 72 63 56 49 47 50 51 48 50 57 68 77 82 86 90 97 98 98 100 98 93 89 85 80 75 71 66 63 60 56
139 136 130 126 120 120 125 130 130 121 118 115 118 121 120 123 123 119 119 124 124 126 128 130 132 133 131 129 127 125 123 121 117 114 112 111 109 109 110 109 110 111 111 111 110 112 111 108 103 99 95 89 85 78 71 61 50 46 46 47 51 52 50 56 66 75 83 87 92 96 98 98 100 102 96 91 87 83 80 76 74 70 63 55 53
145 139 132 127 121 121 124 127 127 124 122 119 120 120 118 121 120 117 119 122 121 123 125 127 129 129 128 127 123 122 121 117 114 113 111 109 107 107 106 105 106 106 107 108 108 109 106 102 96 91 87 83 80 71 61 52 49 48 48 49 51 53 56 67 76 83 90 93 96 97 97 96 95 93 89 88 86 84 82 79 76 71 61 51 51
148 140 131 126 124 122 123 125 126 127 125 122 123 122 121 122 119 117 118 119 118 120 122 124 125 124 123 121 119 119 118 116 115 113 112 110 109 108 106 105 103 104 105 105 105 102 98 95 89 84 80 76 68 60 55 53 55 54 54 55 57 62 68 76 84 89 93 94 95 95 94 93 90 87 85 86 85 85 82 76 70 65 60 52 50
147 140 131 128 128 126 126 125 125 127 126 124 122 122 123 122 119 119 120 119 119 120 121 122 122 122 121 120 120 119 118 117 117 116 114 113 112 111 109 107 106 107 106 103 100 96 92 89 82 78 71 61 51 49 51 55 60 61 63 68 70 73 75 80 87 90 91 91 92 92 91 88 87 86 84 83 81 80 77 71 65 62 59 56 53
147 140 133 131 130 130 129 125 123 125 126 125 122 123 124 122 121 121 122 121 120 119 119 120 121 122 123 122 122 121 120 119 119 118 117 114 113 113 112 112 111 108 104 99 94 88 83 75 64 55 47 43 43 47 52 59 65 69 74 78 78 76 76 80 85 87 88 88 88 87 86 85 85 84 82 80 75 72 70 68 66 63 62 60 59
149 144 137 134 133 132 130 126 124 125 127 127 126 126 124 123 122 122 123 122 120 119 119 121 122 124 124 124 124 124 122 121 120 119 116 114 113 114 115 115 112 104 97 91 86 81 71 60 51 43 41 46 55 62 65 68 72 77 81 78 75 75 77 79 82 86 86 85 84 82 83 83 83 82 80 78 75 72 70 69 68 68 68 67 67
153 148 141 136 135 134 132 130 130 129 130 131 130 128 126 125 125 125 125 124 123 123 123 123 124 126 126 127 127 126 123 121 118 116 115 114 114 115 115 115 110 100 90 85 81 74 63 53 51 52 55 60 68 75 76 76 77 79 78 74 71 73 77 79 80 83 83 82 81 80 81 81 81 80 78 76 75 73 72 72 73 75 75 74 72
158 150 143 140 137 136 136 135 135 135 135 132 130 129 128 129 128 127 126 125 126 124 125 125 127 129 130 130 129 125 122 118 116 114 114 114 114 114 113 113 109 100 91 87 80 68 59 55 56 59 63 67 74 79 80 80 79 77 74 71 71 74 78 77 76 77 78 78 77 75 75 75 75 74 73 73 72 73 73 76 79 80 78 75 71
160 151 146 144 140 139 139 138 137 137 137 133 132 130 129 130 128 126 126 126 125 125 126 127 129 131 131 130 126 123 119 116 114 113 113 113 114 112 111 111 111 112 104 94 81 69 61 57 59 62 65 69 74 79 81 80 77 73 71 70 72 77 78 75 74 74 75 75 73 71 68 68 68 68 71 71 71 73 75 78 79 77 74 70 66
160 154 150 147 143 141 141 140 139 139 138 135 134 132 130 129 127 127 127 127 127 128 129 129 130 131 131 129 125 123 119 114 112 109 110 111 110 107 106 111 121 128 121 108 86 68 61 57 58 62 67 73 78 80 79 78 76 72 70 70 73 78 80 78 76 75 74 73 71 68 65 64 64 65 68 71 73 76 75 73 71 68 65 62 59
162 158 152 147 145 145 143 142 141 140 139 136 135 135 134 132 131 132 131 130 131 131 132 131 132 132 132 132 131 127 121 116 110 105 106 108 110 109 107 116 133 141 137 124 89 64 59 56 53 57 67 78 84 85 84 81 77 74 70 69 73 79 80 76 74 72 71 70 67 65 63 63 64 66 69 71 74 74 69 63 59 57 55 53 52
167 161 154 151 150 148 146 144 142 141 141 139 138 138 138 137 137 138 136 135 135 135 135 135 135 135 136 137 136 132 124 118 112 107 109 113 118 120 119 126 141 151 153 138 89 64 56 50 49 57 72 82 86 87 86 83 77 73 69 67 70 76 77 74 70 67 65 64 63 62 62 62 64 67 68 66 63 59 52 46 44 44 44 45 45
170 164 158 156 154 151 150 148 145 144 145 142 141 142 141 140 141 142 141 140 139 139 139 139 140 138 138 139 137 130 124 120 115 114 116 120 124 125 125 132 148 164 168 154 101 68 49 43 49 61 72 74 77 82 79 75 70 66 63 63 69 76 80 77 67 61 61 62 62 63 64 65 66 67 62 55 49 46 43 40 38 37 39 42 42
169 166 164 161 158 156 153 151 149 148 148 146 145 145 144 143 143 143 144 144 143 144 145 145 145 144 142 140 136 128 124 122 120 119 118 118 121 121 120 127 146 166 172 163 129 73 42 39 47 57 63 62 67 74 66 63 61 58 58 62 70 83 89 77 66 64 63 64 63 65 67 69 70 70 65 58 55 56 54 50 47 45 48 51 48
169 168 167 163 162 160 156 154 152 150 149 148 148 149 148 146 145 146 147 147 147 148 150 150 149 146 139 135 130 125 123 124 124 121 117 115 114 112 113 123 138 157 166 165 152 74 40 38 41 43 44 51 64 65 57 58 56 51 55 64 73 89 94 78 67 62 59 60 63 68 70 72 74 73 69 65 66 67 60 54 53 55 59 57 51
169 169 167 165 165 163 159 156 155 153 152 150 150 151 152 151 149 151 151 150 149 150 153 154 151 144 134 126 118 115 117 119 123 118 114 112 109 106 109 119 131 145 155 160 160 72 43 38 34 32 28 35 51 47 42 47 48 44 49 65 76 85 85 69 59 52 49 55 63 72 76 79 79 75 70 64 64 63 53 49 52 55 54 48 43
171 169 167 166 167 166 162 160 159 159 157 155 155 155 157 157 156 155 155 153 152 155 158 159 154 146 136 127 115 109 108 111 114 109 108 108 106 106 107 113 123 137 148 157 163 69 39 31 27 28 22 24 31 26 20 22 27 29 31 60 80 78 73 59 52 46 45 54 68 78 83 84 82 74 66 56 51 49 44 43 44 43 37 30 25
177 172 169 168 169 168 166 164 165 164 163 162 161 161 162 161 160 159 158 157 157 159 162 162 158 149 138 129 119 112 106 107 104 97 103 106 104 106 105 107 117 137 151 161 176 198 22 22 19 22 20 14 12 3 353 351 354 1 11 53 85 78 71 57 47 41 45 58 75 86 88 83 76 65 53 41 37 33 29 29 30 28 21 15 12
183 177 174 172 172 172 170 168 169 169 168 167 166 165 165 165 164 163 163 165 162 162 163 163 159 150 138 130 125 117 108 108 99 91 101 106 106 109 106 105 116 144 163 177 198 225 300 4 7 11 10 355 350 346 339 344 345 352 9 37 68 75 77 49 33 31 40 55 74 91 89 74 59 47 32 19 18 16 13 12 13 13 12 10 9
188 184 180 177 177 176 174 173 174 175 174 173 171 168 168 168 167 166 168 169 165 161 162 161 156 149 139 132 127 119 113 113 103 92 98 105 111 117 119 123 127 155 184 200 212 224 268 325 349 357 357 347 349 359 1 7 11 6 13 18 11 6 7 7 6 8 20 31 54 81 72 52 34 24 13 1 357 353 353 356 358 0 4 8 8
194 191 187 184 183 182 180 181 181 181 180 180 178 174 171 171 168 168 170 170 165 162 163 161 154 147 140 136 130 131 136 136 127 112 107 119 128 138 153 160 153 176 205 217 222 228 256 297 323 336 345 350 349 346 353 6 5 1 11 11 3 354 337 342 345 343 359 10 6 12 27 16 3 4 4 359 350 339 333 340 350 354 355 356 358
200 197 194 191 190 189 187 188 189 188 187 187 185 179 175 175 174 172 171 168 164 165 169 165 158 152 146 142 142 150 158 160 152 143 148 168 178 178 177 180 175 193 217 221 225 231 249 278 301 317 331 345 342 328 324 335 341 347 356 357 2 4 349 340 339 341 358 10 1 326 337 347 342 345 353 355 351 346 336 330 336 344 347 346 345
201 200 198 196 195 194 193 195 196 195 193 192 190 184 181 181 177 175 172 168 167 170 174 173 166 156 147 151 166 168 169 171 166 160 169 179 185 192 191 194 195 205 222 224 226 230 245 265 284 304 315 324 327 324 320 323 330 336 340 347 359 4 353 347 344 349 355 357 351 325 329 339 333 332 340 344 344 345 341 327 326 332 334 336 338
201 200 200 199 199 197 197 198 198 198 197 195 192 189 187 185 180 178 177 174 174 176 176 174 166 151 151 182 196 189 179 179 178 174 178 179 179 193 199 202 209 215 223 228 229 234 247 261 274 290 303 309 311 314 316 318 324 327 330 339 345 340 346 353 354 345 338 342 344 330 331 336 329 330 337 341 340 340 337 329 328 328 326 329 334
201 200 201 202 202 202 201 201 200 200 199 198 196 194 193 190 185 184 184 183 183 182 177 172 167 166 181 203 210 206 195 187 189 188 187 185 184 196 203 209 217 221 226 230 233 242 251 260 270 280 291 298 299 300 301 306 314 317 318 327 337 335 339 354 359 347 337 335 336 332 335 337 333 333 337 340 336 330 327 328 329 324 322 328 331
203 201 201 203 205 205 206 205 204 203 202 202 202 201 199 195 192 191 192 193 192 190 186 182 185 191 200 208 208 210 209 200 196 197 198 200 204 209 209 215 220 219 225 233 241 251 257 262 267 271 279 285 287 290 293 300 308 307 305 309 323 333 336 343 347 346 340 329 328 330 331 335 340 336 332 335 327 317 317 320 323 319 319 324 326
205 202 201 204 206 207 208 208 206 205 206 207 207 207 205 202 201 202 203 203 203 201 201 204 212 216 219 223 217 211 214 212 207 207 209 213 220 221 219 224 227 225 224 232 241 252 260 263 266 266 268 272 276 283 290 297 301 298 301 303 310 323 330 333 335 338 336 327 325 327 328 332 339 333 330 335 325 316 317 319 322 320 316 320 323
206 204 202 203 205 205 207 208 207 206 207 209 211 212 209 208 209 210 212 212 212 211 213 219 228 233 235 235 232 222 217 217 216 215 217 222 225 225 230 236 240 237 231 232 237 248 260 261 264 267 266 267 271 276 280 284 286 287 295 301 309 319 324 327 330 329 329 326 322 322 327 333 336 335 333 333 329 325 325 327 332 327 317 318 322
204 204 203 203 202 202 203 205 206 207 208 211 213 213 212 213 214 215 218 221 223 224 225 229 237 241 240 241 241 235 228 225 222 220 221 224 225 226 234 242 246 246 241 238 239 248 258 259 263 268 270 271 270 273 274 275 278 283 290 296 304 314 317 321 322 318 320 322 319 322 326 330 333 337 337 337 339 341 338 340 348 336 322 321 322